DELTA 1 DEB, 13536

Orbit data source: Space-Track

DELTA 1 DEB, 13536 is space debris in LEO originally from a launch on Thu, 29 Jul 1976 UTC launched from the Air Force Western Test Range (AFWTR). Debris objects in space refer to the collection of defunct objects orbiting the Earth. Examples of debris include non-operational satellites, rocket bodies, and fragments generated from explosions, collisions, or faulty payload assembly.

Loading next visibility...
Identifier
13536, 1976-077EJ
Orbit
LEO
Country
Flag of USUS
Related business
Manufacturer
Unknown
Mission
Spacecraft
Bus & Motor
Unknown
Mass
Unknown
Launch date (UTC)
1976-07-29 (49 years ago)
Launch vehicle
Unknown
Launch site
Air Force Western Test Range (AFWTR)
Object type
Payload
Rocket body
Debris
Shape & HBR
Unknown shape, 0.1 m
Radar Cross Section
Small (<0.1 m²)

Expand to show TLE details & history
Last TLE update: 23 hours ago

TLE from 23 hours ago
0 DELTA 1 DEB
1 13536U 76077EJ  25301.45683888  .00000133  00000-0  21923-2 0  9992
2 13536 101.7874 242.4715 0421090  73.4078  43.3700 11.75899789 30811
Epoch: 2025-10-28T10:57Z
TLE epoch observation values (Epoch: 2025-10-28T10:57:50.879Z)
Latitude
57.85792°
Longitude
-119.73538°
Altitude
1,557.185 km
Speed
7.199 km/s
True Right ascension
05h 27m 04s
True Declination
57° 43' 06"
Sunlit
Object was in daylight at epoch
Visualization orbit readout
Latitude
Unknown
Longitude
Unknown
Altitude
Unknown
Speed
Unknown
Apparent Right ascension
Unknown
Apparent Declination
Unknown
Sunlit
N/A
Visualization observer readout
Local Sidereal Time
05:13:06
Azimuth
Unknown
Elevation
Unknown
Doppler factor
Unknown
Orbital elements
Apogee altitude
2,132.12 km
Perigee altitude
1,444.364 km
Semi-major axis
8,166.379 km
Eccentricity
0.04211
Inclination
101.7874°
RAAN
242.4715°
Arg. of periapsis
73.4078°
True anomaly
46.81312°
Mean anomaly
43.37°
Eccentric anomaly
45.07835°
Mean motion
2.94103 °/min
Orbital period
122.41 mins
BSTAR
0.0021923
Loading maneuver chart data...
Computing Atmospheric mass density...
Loading historical data...
Loading historical data...
Loading historical data...
Loading historical data...
Loading historical data...
Loading historical data...
Loading historical data...

Documentation

Showing up to 5 results
|